GTI1981 MWCR-SKCG

Flight info

Callsign GTI1981
Flight time 1h 31m
Altitude 37000
Route NALRO2 NALRO DCT COLBY DCT VARON VARON2B
Aircraft B738/M-SDE2E3FGHIRWXY/LB1

Departure

Time 2026-05-04 02:38
Airport Owen Roberts International Airport (MWCR)

Arrival

Time 2026-05-04 04:10
Airport Rafael Nuñez International Airport (SKCG)
Time Latitude Longitude Altitude Speed Heading
2026-05-04 02:08 19.29581 -81.35562 15 ft 0 kts 347°
2026-05-04 02:28 19.29567 -81.35559 16 ft 3 kts 358°
2026-05-04 02:29 19.29547 -81.35561 15 ft 3 kts
2026-05-04 02:29 19.29531 -81.35562 15 ft 2 kts
2026-05-04 02:29 19.29514 -81.35561 15 ft 3 kts 328°
2026-05-04 02:29 19.29502 -81.35548 15 ft 3 kts 284°
2026-05-04 02:30 19.29500 -81.35534 15 ft 3 kts 269°
2026-05-04 02:30 19.29502 -81.35515 15 ft 2 kts 258°
2026-05-04 02:30 19.29503 -81.35509 15 ft 0 kts 258°
2026-05-04 02:30 19.29503 -81.35508 15 ft 0 kts 258°
2026-05-04 02:34 19.29500 -81.35525 16 ft 3 kts 257°
2026-05-04 02:34 19.29494 -81.35552 15 ft 7 kts 257°
2026-05-04 02:34 19.29444 -81.35589 15 ft 11 kts 173°
2026-05-04 02:35 19.29376 -81.35570 14 ft 9 kts 167°
2026-05-04 02:35 19.29325 -81.35591 17 ft 8 kts 237°
2026-05-04 02:35 19.29307 -81.35657 15 ft 11 kts 257°
2026-05-04 02:35 19.29277 -81.35783 14 ft 25 kts 256°
2026-05-04 02:36 19.29226 -81.36001 17 ft 35 kts 256°
2026-05-04 02:36 19.29159 -81.36282 15 ft 41 kts 256°
2026-05-04 02:36 19.29096 -81.36551 15 ft 34 kts 256°
2026-05-04 02:36 19.29042 -81.36785 15 ft 31 kts 257°
2026-05-04 02:37 19.29046 -81.36924 16 ft 13 kts 321°
2026-05-04 02:37 19.29077 -81.36971 15 ft 7 kts 255°
2026-05-04 02:37 19.29045 -81.37008 15 ft 8 kts 178°
2026-05-04 02:37 19.28999 -81.36981 16 ft 8 kts 111°
2026-05-04 02:38 19.29019 -81.36876 15 ft 40 kts 76°
2026-05-04 02:38 19.29149 -81.36327 15 ft 113 kts 76°
2026-05-04 02:38 19.29384 -81.35329 216 ft 153 kts 78°
2026-05-04 02:38 19.29646 -81.34208 951 ft 159 kts 80°
2026-05-04 02:39 19.29914 -81.33066 1747 ft 161 kts 80°
2026-05-04 02:39 19.30185 -81.31839 2301 ft 186 kts 84°
2026-05-04 02:39 19.30032 -81.30386 2577 ft 214 kts 112°
2026-05-04 02:39 19.29252 -81.28934 2809 ft 242 kts 129°
2026-05-04 02:40 19.28132 -81.27529 3443 ft 255 kts 131°
2026-05-04 02:40 19.26960 -81.26102 4438 ft 258 kts 131°
2026-05-04 02:40 19.25771 -81.24664 5423 ft 260 kts 131°
2026-05-04 02:40 19.24568 -81.23211 6253 ft 267 kts 131°
2026-05-04 02:41 19.23333 -81.21715 7009 ft 273 kts 131°
2026-05-04 02:41 19.22070 -81.20186 7771 ft 278 kts 131°
2026-05-04 02:41 19.20790 -81.18636 8579 ft 282 kts 132°
2026-05-04 02:41 19.19714 -81.16891 9338 ft 289 kts 110°
2026-05-04 02:42 19.19239 -81.14808 10147 ft 294 kts 102°
2026-05-04 02:42 19.18860 -81.12616 10507 ft 315 kts 101°
2026-05-04 02:42 19.18472 -81.10240 10686 ft 340 kts 101°
2026-05-04 02:42 19.18060 -81.07698 10851 ft 362 kts 100°
2026-05-04 02:43 19.17623 -81.05017 11124 ft 376 kts 101°
2026-05-04 02:43 19.17167 -81.02267 11657 ft 381 kts 101°
2026-05-04 02:43 19.16705 -80.99497 12303 ft 384 kts 101°
2026-05-04 02:43 19.16234 -80.96707 12937 ft 387 kts 101°
2026-05-04 02:44 19.15756 -80.93890 13520 ft 392 kts 101°
2026-05-04 02:44 19.15270 -80.91039 14104 ft 396 kts 101°
2026-05-04 02:44 19.14780 -80.88167 14708 ft 397 kts 100°
2026-05-04 02:44 19.14287 -80.85285 15312 ft 400 kts 100°
2026-05-04 02:45 19.13798 -80.82416 15883 ft 403 kts 100°
2026-05-04 02:45 19.13296 -80.79486 16447 ft 407 kts 99°
2026-05-04 02:45 19.12789 -80.76531 17003 ft 410 kts 99°
2026-05-04 02:45 19.12277 -80.73553 17561 ft 413 kts 99°
2026-05-04 02:46 19.11762 -80.70555 18118 ft 416 kts 99°
2026-05-04 02:46 19.11242 -80.67531 18592 ft 420 kts 99°
2026-05-04 02:46 19.10717 -80.64479 19034 ft 423 kts 99°
2026-05-04 02:46 19.10187 -80.61409 19475 ft 427 kts 99°
2026-05-04 02:47 19.09652 -80.58310 19899 ft 430 kts 100°
2026-05-04 02:47 19.09113 -80.55189 20324 ft 433 kts 100°
2026-05-04 02:47 19.08569 -80.52046 20729 ft 436 kts 100°
2026-05-04 02:47 19.08020 -80.48881 21117 ft 439 kts 101°
2026-05-04 02:48 19.07467 -80.45686 21487 ft 443 kts 101°
2026-05-04 02:48 19.06910 -80.42473 21855 ft 446 kts 101°
2026-05-04 02:48 19.06347 -80.39235 22231 ft 449 kts 101°
2026-05-04 02:48 19.05781 -80.35980 22617 ft 451 kts 101°
2026-05-04 02:49 19.05211 -80.32702 22974 ft 454 kts 102°
2026-05-04 02:49 19.04637 -80.29409 23308 ft 457 kts 102°
2026-05-04 02:49 19.04045 -80.26102 23633 ft 459 kts 104°
2026-05-04 02:49 19.02872 -80.22987 23887 ft 458 kts 124°
2026-05-04 02:50 19.00841 -80.20414 24195 ft 456 kts 139°
2026-05-04 02:50 18.98271 -80.18461 24474 ft 456 kts 154°
2026-05-04 02:50 18.95365 -80.17131 24772 ft 456 kts 159°
2026-05-04 02:50 18.92439 -80.15916 25010 ft 459 kts 160°
2026-05-04 02:51 18.89455 -80.14701 25261 ft 461 kts 160°
2026-05-04 02:51 18.86416 -80.13459 25534 ft 463 kts 160°
2026-05-04 02:51 18.83451 -80.12236 25818 ft 464 kts 159°
2026-05-04 02:51 18.80443 -80.10981 26080 ft 466 kts 159°
2026-05-04 02:52 18.77427 -80.09713 26323 ft 468 kts 159°
2026-05-04 02:52 18.74397 -80.08434 26576 ft 470 kts 159°
2026-05-04 02:52 18.71359 -80.07148 26796 ft 472 kts 159°
2026-05-04 02:52 18.68302 -80.05852 26996 ft 475 kts 159°
2026-05-04 02:53 18.65226 -80.04549 27232 ft 476 kts 159°
2026-05-04 02:53 18.62148 -80.03245 27479 ft 477 kts 160°
2026-05-04 02:53 18.59058 -80.01938 27703 ft 479 kts 159°
2026-05-04 02:53 18.55959 -80.00628 27890 ft 482 kts 159°
2026-05-04 02:54 18.52838 -79.99309 28097 ft 484 kts 159°
2026-05-04 02:54 18.49712 -79.97988 28319 ft 485 kts 160°
2026-05-04 02:54 18.46575 -79.96663 28510 ft 487 kts 160°
2026-05-04 02:54 18.43422 -79.95333 28677 ft 489 kts 159°
2026-05-04 02:55 18.37102 -79.92668 29195 ft 488 kts 160°
2026-05-04 02:55 18.33951 -79.91339 29510 ft 488 kts 160°
2026-05-04 02:55 18.30800 -79.90011 29810 ft 488 kts 159°
2026-05-04 02:56 18.27656 -79.88687 30079 ft 488 kts 160°
2026-05-04 02:56 18.24548 -79.87378 30330 ft 488 kts 160°
2026-05-04 02:56 18.21399 -79.86053 30592 ft 487 kts 160°
2026-05-04 02:56 18.18254 -79.84730 30875 ft 486 kts 160°
2026-05-04 02:57 18.15109 -79.83407 31155 ft 486 kts 160°
2026-05-04 02:57 18.11966 -79.82085 31401 ft 487 kts 160°
2026-05-04 02:57 18.08813 -79.80761 31658 ft 487 kts 160°
2026-05-04 02:57 18.05665 -79.79438 31977 ft 486 kts 160°
2026-05-04 02:58 18.02526 -79.78120 32327 ft 485 kts 160°
2026-05-04 02:58 17.99396 -79.76806 32655 ft 484 kts 160°
2026-05-04 02:58 17.96266 -79.75493 32938 ft 484 kts 160°
2026-05-04 02:58 17.93137 -79.74181 33237 ft 484 kts 160°
2026-05-04 02:59 17.90015 -79.72872 33564 ft 483 kts 160°
2026-05-04 02:59 17.86889 -79.71562 33894 ft 483 kts 160°
2026-05-04 02:59 17.83769 -79.70255 34189 ft 483 kts 160°
2026-05-04 02:59 17.80689 -79.68965 34478 ft 482 kts 161°
2026-05-04 03:00 17.77579 -79.67661 34804 ft 480 kts 161°
2026-05-04 03:00 17.74481 -79.66364 35126 ft 479 kts 161°
2026-05-04 03:00 17.71384 -79.65069 35412 ft 478 kts 161°
2026-05-04 03:00 17.68297 -79.63778 35701 ft 477 kts 161°
2026-05-04 03:01 17.65217 -79.62491 36007 ft 476 kts 161°
2026-05-04 03:01 17.62142 -79.61208 36321 ft 475 kts 161°
2026-05-04 03:01 17.59076 -79.59928 36601 ft 474 kts 161°
2026-05-04 03:01 17.56014 -79.58649 36872 ft 474 kts 161°
2026-05-04 03:02 17.52954 -79.57372 37037 ft 475 kts 161°
2026-05-04 03:02 17.46781 -79.54799 37018 ft 477 kts 161°
2026-05-04 03:03 17.40697 -79.52260 37010 ft 470 kts 161°
2026-05-04 03:03 17.34624 -79.49730 37019 ft 469 kts 161°
2026-05-04 03:04 17.28568 -79.47209 37026 ft 468 kts 161°
2026-05-04 03:04 17.22518 -79.44692 37022 ft 468 kts 161°
2026-05-04 03:05 17.16466 -79.42179 37019 ft 468 kts 162°
2026-05-04 03:05 17.10409 -79.39663 37022 ft 469 kts 161°
2026-05-04 03:06 17.04328 -79.37138 37023 ft 471 kts 161°
2026-05-04 03:06 16.98262 -79.34622 37023 ft 473 kts 161°
2026-05-04 03:07 16.92127 -79.32080 37022 ft 475 kts 161°
2026-05-04 03:07 16.85981 -79.29533 37018 ft 476 kts 161°
2026-05-04 03:08 16.79821 -79.26984 37015 ft 476 kts 161°
2026-05-04 03:08 16.73661 -79.24434 37020 ft 476 kts 161°
2026-05-04 03:09 16.67511 -79.21895 37017 ft 475 kts 161°
2026-05-04 03:09 16.61370 -79.19357 37013 ft 474 kts 161°
2026-05-04 03:10 16.55242 -79.16827 37016 ft 473 kts 161°
2026-05-04 03:10 16.49121 -79.14301 37017 ft 473 kts 161°
2026-05-04 03:11 16.43005 -79.11781 37012 ft 473 kts 161°
2026-05-04 03:11 16.36923 -79.09274 37010 ft 473 kts 161°
2026-05-04 03:12 16.30799 -79.06754 37012 ft 473 kts 161°
2026-05-04 03:12 16.24666 -79.04232 37005 ft 474 kts 161°
2026-05-04 03:13 16.18521 -79.01706 37012 ft 475 kts 161°
2026-05-04 03:13 16.12355 -78.99174 37005 ft 476 kts 161°
2026-05-04 03:14 16.06190 -78.96642 37012 ft 477 kts 161°
2026-05-04 03:14 16.00016 -78.94108 37007 ft 477 kts 161°
2026-05-04 03:15 15.93841 -78.91576 37009 ft 477 kts 161°
2026-05-04 03:15 15.87654 -78.89041 37008 ft 477 kts 161°
2026-05-04 03:16 15.81478 -78.86512 37008 ft 477 kts 161°
2026-05-04 03:16 15.75308 -78.83963 37001 ft 477 kts 160°
2026-05-04 03:17 15.69136 -78.81442 37032 ft 475 kts 161°
2026-05-04 03:17 15.62984 -78.78926 37005 ft 475 kts 161°
2026-05-04 03:18 15.56810 -78.76424 37007 ft 477 kts 161°
2026-05-04 03:18 15.50671 -78.73927 37009 ft 477 kts 161°
2026-05-04 03:19 15.44488 -78.71401 37002 ft 478 kts 161°
2026-05-04 03:19 15.38290 -78.68879 37005 ft 478 kts 161°
2026-05-04 03:20 15.32091 -78.66350 36995 ft 479 kts 160°
2026-05-04 03:20 15.25905 -78.63814 36997 ft 477 kts 159°
2026-05-04 03:21 15.20808 -78.61692 36960 ft 476 kts 164°
2026-05-04 03:21 15.14602 -78.59332 36984 ft 479 kts 159°
2026-05-04 03:22 15.08464 -78.56643 36995 ft 478 kts 161°
2026-05-04 03:22 15.02255 -78.54215 36996 ft 476 kts 161°
2026-05-04 03:23 14.96437 -78.50940 36999 ft 478 kts 147°
2026-05-04 03:23 14.91036 -78.46956 36992 ft 475 kts 144°
2026-05-04 03:24 14.85632 -78.43088 37022 ft 474 kts 147°
2026-05-04 03:24 14.80224 -78.39190 36992 ft 475 kts 146°
2026-05-04 03:25 14.74782 -78.35275 36972 ft 478 kts 147°
2026-05-04 03:25 14.69359 -78.31356 36996 ft 474 kts 146°
2026-05-04 03:26 14.63962 -78.27463 36992 ft 472 kts 147°
2026-05-04 03:26 14.58607 -78.23626 36988 ft 471 kts 146°
2026-05-04 03:27 14.53219 -78.19773 36994 ft 471 kts 147°
2026-05-04 03:27 14.47830 -78.15925 36993 ft 472 kts 148°
2026-05-04 03:28 14.42424 -78.12065 37007 ft 473 kts 147°
2026-05-04 03:28 14.36998 -78.08194 36992 ft 475 kts 147°
2026-05-04 03:29 14.31565 -78.04317 36988 ft 476 kts 147°
2026-05-04 03:29 14.26124 -78.00430 36980 ft 476 kts 147°
2026-05-04 03:30 14.20677 -77.96546 36988 ft 476 kts 147°
2026-05-04 03:30 14.15235 -77.92677 36996 ft 474 kts 147°
2026-05-04 03:31 14.09806 -77.88817 36988 ft 474 kts 147°
2026-05-04 03:31 14.04385 -77.84960 36998 ft 473 kts 147°
2026-05-04 03:32 13.98966 -77.81111 36987 ft 473 kts 147°
2026-05-04 03:32 13.93557 -77.77288 36984 ft 476 kts 147°
2026-05-04 03:33 13.88108 -77.73399 36978 ft 477 kts 147°
2026-05-04 03:33 13.82650 -77.69529 36989 ft 476 kts 147°
2026-05-04 03:34 13.77192 -77.65658 36981 ft 476 kts 147°
2026-05-04 03:34 13.71736 -77.61788 36996 ft 476 kts 147°
2026-05-04 03:35 13.66279 -77.57921 36976 ft 477 kts 147°
2026-05-04 03:35 13.60812 -77.54049 36983 ft 477 kts 148°
2026-05-04 03:36 13.55335 -77.50174 36994 ft 478 kts 147°
2026-05-04 03:36 13.49852 -77.46297 36975 ft 479 kts 147°
2026-05-04 03:37 13.44363 -77.42418 36991 ft 479 kts 147°
2026-05-04 03:37 13.38870 -77.38536 36982 ft 479 kts 147°
2026-05-04 03:38 13.33380 -77.34659 36991 ft 479 kts 147°
2026-05-04 03:38 13.27882 -77.30781 36978 ft 480 kts 148°
2026-05-04 03:39 13.22372 -77.26897 36993 ft 480 kts 147°
2026-05-04 03:39 13.16867 -77.23020 36969 ft 480 kts 147°
2026-05-04 03:40 13.11408 -77.19174 36983 ft 479 kts 146°
2026-05-04 03:40 13.05910 -77.15301 36969 ft 480 kts 147°
2026-05-04 03:41 13.00402 -77.11424 36956 ft 481 kts 147°
2026-05-04 03:41 12.94883 -77.07544 36965 ft 481 kts 147°
2026-05-04 03:42 12.89351 -77.03656 36967 ft 482 kts 147°
2026-05-04 03:42 12.83821 -76.99772 36966 ft 482 kts 146°
2026-05-04 03:43 12.78306 -76.95899 36976 ft 480 kts 146°
2026-05-04 03:43 12.72804 -76.92038 36975 ft 479 kts 146°
2026-05-04 03:44 12.67307 -76.88183 36956 ft 479 kts 147°
2026-05-04 03:44 12.61808 -76.84329 36977 ft 479 kts 147°
2026-05-04 03:45 12.56313 -76.80481 36960 ft 479 kts 147°
2026-05-04 03:45 12.50856 -76.76660 36974 ft 478 kts 146°
2026-05-04 03:46 12.45355 -76.72809 36968 ft 478 kts 147°
2026-05-04 03:46 12.39867 -76.68971 36973 ft 477 kts 146°
2026-05-04 03:47 12.34385 -76.65137 36970 ft 477 kts 146°
2026-05-04 03:47 12.28896 -76.61338 36975 ft 476 kts 147°
2026-05-04 03:48 12.23427 -76.57539 36952 ft 475 kts 146°
2026-05-04 03:48 12.17982 -76.53703 36965 ft 475 kts 146°
2026-05-04 03:49 12.12540 -76.49887 36949 ft 474 kts 146°
2026-05-04 03:49 12.07041 -76.46049 36968 ft 482 kts 146°
2026-05-04 03:50 12.01479 -76.42174 36953 ft 485 kts 146°
2026-05-04 03:50 11.95910 -76.38294 36946 ft 485 kts 146°
2026-05-04 03:51 11.90373 -76.34439 36948 ft 484 kts 146°
2026-05-04 03:51 11.84813 -76.30571 36954 ft 482 kts 146°
2026-05-04 03:52 11.79279 -76.26721 36942 ft 481 kts 146°
2026-05-04 03:52 11.73750 -76.22877 36963 ft 480 kts 146°
2026-05-04 03:53 11.68200 -76.19025 36393 ft 481 kts 146°
2026-05-04 03:53 11.65437 -76.17151 35642 ft 478 kts 146°
2026-05-04 03:53 11.62688 -76.15242 34932 ft 478 kts 146°
2026-05-04 03:53 11.59944 -76.13321 34154 ft 480 kts 146°
2026-05-04 03:54 11.57191 -76.11393 33280 ft 482 kts 146°
2026-05-04 03:54 11.54455 -76.09482 32452 ft 483 kts 146°
2026-05-04 03:54 11.51681 -76.07550 31603 ft 483 kts 146°
2026-05-04 03:54 11.48870 -76.05598 30713 ft 483 kts 147°
2026-05-04 03:55 11.46122 -76.03693 29741 ft 484 kts 147°
2026-05-04 03:55 11.43337 -76.01763 28645 ft 484 kts 147°
2026-05-04 03:55 11.40549 -75.99832 27571 ft 484 kts 147°
2026-05-04 03:55 11.37767 -75.97905 26471 ft 484 kts 147°
2026-05-04 03:56 11.34982 -75.95977 25518 ft 482 kts 147°
2026-05-04 03:56 11.32226 -75.94068 24728 ft 476 kts 147°
2026-05-04 03:56 11.29500 -75.92179 23917 ft 471 kts 147°
2026-05-04 03:56 11.26804 -75.90313 23040 ft 467 kts 147°
2026-05-04 03:57 11.24131 -75.88458 22183 ft 461 kts 146°
2026-05-04 03:57 11.21505 -75.86634 21380 ft 454 kts 146°
2026-05-04 03:57 11.18904 -75.84832 20590 ft 448 kts 146°
2026-05-04 03:57 11.16346 -75.83065 19826 ft 442 kts 146°
2026-05-04 03:58 11.11320 -75.79601 18295 ft 432 kts 145°
2026-05-04 03:58 11.08851 -75.77894 17459 ft 427 kts 145°
2026-05-04 03:58 11.06410 -75.76207 16709 ft 420 kts 145°
2026-05-04 03:59 11.03945 -75.74654 15954 ft 415 kts 154°
2026-05-04 03:59 11.01178 -75.73866 15228 ft 412 kts 170°
2026-05-04 03:59 10.98401 -75.73391 14510 ft 407 kts 167°
2026-05-04 03:59 10.95649 -75.72752 13809 ft 404 kts 165°
2026-05-04 04:00 10.92923 -75.72072 13033 ft 401 kts 165°
2026-05-04 04:00 10.90235 -75.71392 12270 ft 397 kts 165°
2026-05-04 04:00 10.87566 -75.70712 11488 ft 393 kts 165°
2026-05-04 04:00 10.84923 -75.70037 10790 ft 390 kts 165°
2026-05-04 04:01 10.82347 -75.69378 10544 ft 373 kts 165°
2026-05-04 04:01 10.79874 -75.68747 10306 ft 359 kts 165°
2026-05-04 04:01 10.77491 -75.68140 10088 ft 347 kts 165°
2026-05-04 04:01 10.75209 -75.67559 10059 ft 329 kts 164°
2026-05-04 04:02 10.73070 -75.66902 10022 ft 313 kts 161°
2026-05-04 04:02 10.71089 -75.66230 9904 ft 298 kts 160°
2026-05-04 04:02 10.69130 -75.65556 9293 ft 300 kts 160°
2026-05-04 04:02 10.67149 -75.64868 8664 ft 302 kts 160°
2026-05-04 04:03 10.65161 -75.64173 8036 ft 301 kts 160°
2026-05-04 04:03 10.63191 -75.63470 7415 ft 299 kts 157°
2026-05-04 04:03 10.61305 -75.62603 6848 ft 296 kts 154°
2026-05-04 04:03 10.59468 -75.61693 6329 ft 292 kts 153°
2026-05-04 04:04 10.57660 -75.60783 5789 ft 288 kts 153°
2026-05-04 04:04 10.55867 -75.59897 5258 ft 285 kts 154°
2026-05-04 04:04 10.54150 -75.58918 4744 ft 281 kts 146°
2026-05-04 04:04 10.52536 -75.57817 4251 ft 277 kts 145°
2026-05-04 04:05 10.50965 -75.56718 3763 ft 273 kts 145°
2026-05-04 04:05 10.49414 -75.55626 3289 ft 270 kts 145°
2026-05-04 04:05 10.47878 -75.54545 2803 ft 267 kts 146°
2026-05-04 04:05 10.46211 -75.53797 2439 ft 259 kts 172°
2026-05-04 04:06 10.44480 -75.53822 2262 ft 247 kts 186°
2026-05-04 04:06 10.42807 -75.54019 2048 ft 237 kts 187°
2026-05-04 04:06 10.41225 -75.54218 1866 ft 220 kts 187°
2026-05-04 04:06 10.39772 -75.54403 1638 ft 201 kts 187°
2026-05-04 04:07 10.38453 -75.54526 1523 ft 179 kts 185°
2026-05-04 04:07 10.37284 -75.54366 1326 ft 166 kts 152°
2026-05-04 04:07 10.36601 -75.53520 1030 ft 153 kts 99°
2026-05-04 04:07 10.36785 -75.52552 857 ft 136 kts 52°
2026-05-04 04:08 10.37468 -75.51955 780 ft 132 kts 25°
2026-05-04 04:08 10.38340 -75.51648 762 ft 134 kts 10°
2026-05-04 04:08 10.39263 -75.51515 682 ft 133 kts
2026-05-04 04:08 10.40175 -75.51453 621 ft 133 kts
2026-05-04 04:09 10.41120 -75.51406 416 ft 137 kts 358°
2026-05-04 04:09 10.42053 -75.51378 244 ft 133 kts 359°
2026-05-04 04:09 10.42973 -75.51341 51 ft 128 kts 359°
2026-05-04 04:09 10.43785 -75.51311 9 ft 101 kts
2026-05-04 04:10 10.44263 -75.51291 8 ft 37 kts
2026-05-04 04:10 10.44454 -75.51282 11 ft 22 kts
2026-05-04 04:10 10.44546 -75.51319 11 ft 9 kts 290°
2026-05-04 04:10 10.44551 -75.51363 11 ft 6 kts 275°
2026-05-04 04:11 10.44552 -75.51382 11 ft 3 kts 272°
2026-05-04 04:11 10.44539 -75.51402 12 ft 4 kts 211°
2026-05-04 04:11 10.44506 -75.51403 11 ft 5 kts 182°
2026-05-04 04:11 10.44481 -75.51404 11 ft 0 kts 181°